This is the latest recevied weather packets stored in our database for station/object WL7CLI. If no packets are shown the sender has not sent any weather packets the latest 1 day(s).
| Time | Temp. | Humidity | Pressure | Rain* | Wind** | Luminosity | Snow |
|---|---|---|---|---|---|---|---|
| 1778044700 | 8.33° C | 47% | 1013.8 hPa | 0 mm | - | - | - |
| 1778043504 | 8.33° C | 46% | 1013.3 hPa | 0 mm | - | - | - |
| 1778043373 | 8.33° C | 46% | 1013.5 hPa | 0 mm | - | - | - |
| 1778042299 | 8.89° C | 46% | 1013.4 hPa | 0 mm | - | - | - |
| 1778041705 | 8.89° C | 46% | 1013.1 hPa | 0 mm | - | - | - |
| 1778041099 | 8.89° C | 45% | 1013.4 hPa | 0 mm | - | - | - |
| 1778040972 | 9.44° C | 45% | 1013.4 hPa | 0 mm | - | - | - |
| 1778039905 | 10° C | 44% | 1013 hPa | 0 mm | - | - | - |
| 1778039898 | 10° C | 44% | 1013.2 hPa | 0 mm | - | - | - |
| 1778038104 | 11.11° C | 40% | 1012.9 hPa | 0 mm | - | - | - |
| 1778037498 | 11.11° C | 39% | 1012.9 hPa | 0 mm | - | - | - |
| 1778037371 | 11.11° C | 40% | 1012.9 hPa | 0 mm | - | - | - |
| 1778036304 | 11.67° C | 38% | 1012.5 hPa | 0 mm | - | - | - |
| 1778036300 | 11.67° C | 38% | 1012.7 hPa | 0 mm | - | - | - |
| 1778036173 | 11.67° C | 39% | 1012.7 hPa | 0 mm | - | - | - |
| 1778035099 | 12.22° C | 37% | 1012.3 hPa | 0 mm | - | - | - |
| 1778034975 | 12.22° C | 38% | 1012.2 hPa | 0 mm | - | - | - |
| 1778034504 | 12.22° C | 38% | 1011.9 hPa | 0 mm | - | - | - |
| 1778033899 | 12.22° C | 37% | 1012.1 hPa | 0 mm | - | - | - |
| 1778033775 | 12.22° C | 37% | 1012 hPa | 0 mm | - | - | - |
| 1778032704 | 12.78° C | 37% | 1011.7 hPa | 0 mm | - | - | - |
| 1778032698 | 12.78° C | 37% | 1011.8 hPa | 0 mm | - | - | - |
| 1778031498 | 12.78° C | 36% | 1011.7 hPa | 0 mm | - | - | - |
| 1778031373 | 12.78° C | 35% | 1011.6 hPa | 0 mm | - | - | - |
| 1778030904 | 12.78° C | 36% | 1011.4 hPa | 0 mm | - | - | - |
* Rain latest hour (hover to see other rain measurements)
** Current wind speed in m/s (hover to see current wind gust speed)